User: anonymous   Login
Location: Unspecified
(0.0000°N, 0.0000°E)
Time: 11:33:28
(UTC+00:00)
Language:

TURKSAT 3U - Orbit

View from above orbital plane
View from above orbital plane
View from above satellite
View from above satellite

Ground track
Ground track

The orbit data is extracted from the following two-line orbital elements,

1 39152U 13018C   17329.21237584  .00000352  00000-0  52896-4 0  9991
2 39152  97.9420  54.8183 0015797 237.8767 122.0913 14.80401578247392
Epoch (UTC): 25 November 2017 05:05:49
Eccentricity: 0.0015797
inclination: 97.9420°
perigee height: 617 km
apogee height: 639 km
right ascension of ascending node: 54.8183°
argument of perigee: 237.8767°
revolutions per day: 14.80401578
mean anomaly at epoch: 122.0913°
orbit number at epoch: 24739

The dashed part of the orbit path shows where the satellite is in the earth's shadow,  

DLR